NATIONAL KEY DEER NWR FL US current weather conditions

sailwx.info

Wind from 101 at 6 knots gusting 13

Air temperature 30.6° C
Dewpoint 20.5° C

Last reported at 2016-May-01 18:38 UTC.
Time now 2016-May-01 19:22 UTC

Location: N 24°43' W 081°23'.
View on Google Maps.

See reports from other nearby stations

  
Tides and Currents Weather Stations Pressure Air Temp Water Temp Dewpoint Dewpoint Depression Visibility Wind Speed Wind Dir Waves Ship Positions
date/time (UTC)wind fromknots sea level pressurealtimeterstation pressurevisibilityair tempwater tempwave heightnotes
2016-May-01 18:38 101 6 gusting 13 30.6
2016-May-01 17:38 148 7 gusting 17 31.1
2016-May-01 16:38 149 7 gusting 15 31.1
2016-May-01 15:38 140 7 gusting 15 29.4
2016-May-01 14:38 140 6 gusting 13 30.0
2016-May-01 13:38 143 6 gusting 13 28.9
2016-May-01 12:38 141 6 gusting 11 27.2
2016-May-01 11:38 134 4 gusting 11 26.1
2016-May-01 10:38 127 6 gusting 11 25.6
2016-May-01 09:38 128 5 gusting 11 25.6
2016-May-01 08:38 126 5 gusting 11 25.6
2016-May-01 07:38 129 5 gusting 12 25.6
2016-May-01 06:38 120 6 gusting 12 25.6
2016-May-01 05:38 110 4 gusting 13 26.1
2016-May-01 04:38 127 4 gusting 12 25.6
2016-May-01 03:38 105 6 gusting 19 26.1
2016-May-01 02:38 109 6 gusting 15 25.6
2016-May-01 01:38 105 6 gusting 13 25.6
2016-May-01 00:38 108 6 gusting 13 25.6
2016-Apr-30 23:38 107 5 gusting 13 26.1
2016-Apr-30 22:38 109 6 gusting 13 27.8
2016-Apr-30 21:38 111 6 gusting 15 28.9
2016-Apr-30 20:38 097 6 gusting 14 29.4
2016-Apr-30 19:38 107 6 gusting 14 29.4
2016-Apr-30 18:38 107 6 gusting 14 29.4
2016-Apr-30 17:38 108 6 gusting 14 29.4
2016-Apr-30 16:38 113 6 gusting 13 29.4
2016-Apr-30 15:38 104 6 gusting 13 28.9
2016-Apr-30 14:38 105 6 gusting 12 28.3
2016-Apr-30 13:38 118 6 gusting 11 27.8
2016-Apr-30 12:38 102 5 gusting 11 27.2
2016-Apr-30 11:38 127 5 gusting 11 25.0
2016-Apr-30 10:38 123 4 gusting 10 24.4
2016-Apr-30 09:38 128 4 gusting 10 25.0
2016-Apr-30 08:38 124 4 gusting 10 25.0
2016-Apr-30 07:38 121 4 gusting 11 25.0
2016-Apr-30 06:38 100 6 gusting 11 25.6
2016-Apr-30 05:38 108 5 gusting 13 25.6
2016-Apr-30 04:38 114 4 gusting 12 25.6
2016-Apr-30 03:38 095 6 gusting 11 25.6
2016-Apr-30 02:38 094 5 gusting 9 25.6
2016-Apr-30 01:38 122 5 gusting 8 25.6
2016-Apr-30 00:38 129 4 gusting 9 26.1
2016-Apr-29 23:38 128 4 gusting 7 26.7
2016-Apr-29 22:38 117 4 gusting 10 28.9
2016-Apr-29 21:38 102 6 gusting 12 29.4
2016-Apr-29 20:38 112 5 gusting 10 30.0
2016-Apr-29 19:38 089 5 gusting 11 30.6